Location: Bidwell Hollow
(37.7387°N, 90.1707°W)
Time: 02:01:11
(UTC+00:00)

Tiros 1 despin weight - Pass Details

Date: 19 May 2026
Orbit: 554 x 591 km, 48.2° (Epoch: 6 June)

Event Time Altitude Azimuth Distance (km) Brightness Sun altitude
Rises 13:52:00 0° 306° (NW) 2,743 ? 34.4°
Reaches altitude 10° 13:54:29 10° 317° (NW) 1,842 ? 34.9°
Maximum altitude 13:58:12 30° 19° (NNE) 1,020 ? 35.6°
Drops below altitude 10° 14:01:53 10° 82° (E) 1,830 ? 36.4°
Sets 14:04:20 0° 93° (E) 2,722 ? 36.8°
